Theta_e
357 360 360 360 343 343 349 348 344 345 345 343 343 344 347 348 344 342 337 342 343 342 340 341 334 333 334 336 336 336 333 332 332 331 331 330 329 328 328 329 330 328 326 327 328 330 330 330 331
359 361 361 362 343 347 348 347 348 346 345 345 346 348 348 348 345 340 340 342 341 338 334 331 330 330 330 331 333 334 335 336 336 335 333 332 331 329 330 330 328 328 329 330 331 331 330 329 331
362 364 362 355 338 344 349 346 346 345 344 344 347 348 348 349 342 339 341 341 336 330 329 329 330 331 332 334 332 332 332 334 333 337 337 337 335 334 334 333 332 332 331 331 331 333 332 332 336
363 362 360 336 341 339 346 344 345 344 343 343 345 347 348 347 342 337 336 335 334 328 328 329 330 334 333 332 331 332 332 332 333 335 335 334 337 337 337 337 338 337 338 338 338 338 338 339 339
350 353 344 341 345 342 343 344 345 347 347 345 345 348 348 346 343 335 334 332 329 329 328 329 332 335 334 331 330 331 335 337 335 333 337 337 332 329 331 336 334 336 335 337 339 340 340 341 340
346 349 340 344 345 344 343 344 347 347 347 346 347 347 348 346 340 337 334 331 328 329 329 331 336 336 332 331 330 332 336 336 340 334 337 337 340 335 336 335 336 337 336 335 336 341 340 340 339
346 345 339 341 346 346 345 345 346 345 346 345 343 346 348 346 340 337 334 328 327 331 334 336 336 333 331 330 331 333 335 337 334 336 335 335 335 331 333 336 334 333 336 338 337 335 336 337 338
344 340 346 344 343 344 344 344 346 346 346 342 341 346 347 345 339 337 331 329 330 335 337 336 333 331 331 332 331 334 334 331 329 329 333 329 328 329 330 331 335 336 336 335 334 334 335 338 339
344 344 351 350 349 344 343 344 345 345 344 345 345 344 341 343 343 338 335 336 336 337 337 334 331 331 332 332 330 331 332 329 329 334 333 343 342 340 339 337 336 339 339 338 331 333 334 333 338
346 350 349 348 346 344 341 343 345 345 344 344 345 345 342 343 342 340 343 343 340 336 334 331 331 332 331 329 329 331 333 329 341 346 346 346 345 343 345 345 346 346 345 343 339 332 330 334 332
346 351 348 348 345 343 340 344 345 345 344 344 346 346 345 344 344 344 344 340 336 332 331 331 332 338 341 342 331 340 334 343 345 346 346 346 346 346 347 347 349 348 349 347 347 345 346 344 334
347 344 346 348 343 342 346 345 346 344 345 344 345 347 347 347 347 348 345 343 337 332 332 333 336 346 345 347 345 345 345 345 345 347 346 346 347 346 348 347 346 346 346 344 344 343 345 347 344
344 345 346 346 347 342 346 345 345 345 344 343 344 347 348 348 348 349 345 345 341 338 343 345 345 347 344 348 349 348 347 347 347 347 345 347 347 348 347 346 346 346 345 343 343 344 342 345 344
344 343 344 344 344 345 344 343 344 344 343 342 344 347 348 348 348 348 346 346 345 345 346 347 348 346 344 348 348 348 349 347 347 348 347 346 346 347 348 345 346 344 342 342 344 344 342 341 342
341 342 344 343 341 344 341 344 346 344 343 342 342 347 349 348 349 347 345 345 344 345 345 347 348 346 345 346 348 347 347 348 345 348 349 348 347 346 345 346 346 343 343 346 346 345 343 344 342
341 341 344 343 340 344 339 341 343 344 343 343 342 343 343 345 347 345 345 345 344 345 345 346 347 347 345 346 348 348 346 348 349 349 349 347 348 349 346 348 346 342 344 344 342 342 341 344 345
338 339 344 343 343 345 343 342 341 344 343 343 343 342 343 343 342 343 345 345 344 344 345 347 348 347 346 345 349 348 348 349 349 346 348 349 348 346 348 349 348 343 344 342 342 342 342 343 344
338 340 342 342 345 346 343 341 341 342 343 343 343 343 344 344 343 343 343 344 343 343 344 346 347 348 347 346 347 349 347 350 349 349 345 347 344 347 345 348 347 343 344 346 345 344 342 342 344
337 340 340 340 345 345 345 343 341 341 342 342 342 342 343 343 343 343 343 343 344 343 344 346 347 347 345 340 343 348 346 348 346 347 349 347 346 347 347 348 346 345 346 346 344 336 342 342 344
336 339 339 340 342 343 341 341 340 341 343 342 341 341 342 343 343 343 343 343 343 345 345 346 346 345 345 344 337 342 345 348 348 346 349 349 349 348 347 346 349 349 346 341 331 340 341 340 345
333 336 337 340 340 338 340 341 342 340 343 344 342 342 343 343 343 343 343 343 344 345 345 345 345 345 345 344 345 340 345 348 344 346 348 348 349 348 348 346 348 348 347 337 336 337 339 339 344
326 333 337 340 338 339 337 340 335 341 341 346 346 343 342 342 343 342 342 343 344 344 344 344 345 345 344 343 346 346 340 343 345 349 351 348 348 351 347 347 346 347 343 337 335 336 340 340 336
325 333 337 338 334 334 337 336 334 340 342 342 344 345 345 343 342 342 341 342 343 343 343 342 342 343 343 342 346 346 341 343 346 352 350 350 348 348 348 347 347 345 338 338 334 334 334 339 340
325 329 326 325 331 337 334 336 334 343 343 340 340 343 344 344 342 342 342 343 342 342 342 343 342 343 342 342 344 344 342 345 347 348 351 350 345 346 348 345 346 346 336 337 340 334 330 334 337
320 325 326 338 337 339 326 332 333 334 340 341 341 342 342 344 344 342 342 343 342 342 342 342 342 344 344 341 342 342 342 343 346 348 349 346 345 347 347 345 346 346 342 336 334 335 330 320 320
320 320 323 330 328 329 328 331 331 330 337 342 342 342 340 341 344 344 343 344 344 342 343 344 342 343 345 343 342 342 343 344 347 349 350 349 346 346 346 344 345 347 342 335 334 333 330 322 314
321 321 320 320 319 323 324 327 330 337 339 338 335 338 340 339 342 344 344 343 345 344 345 346 344 344 347 346 346 343 344 343 344 346 349 351 349 349 349 346 344 346 344 335 334 333 339 333 315
320 317 321 317 324 327 324 333 330 337 340 338 341 341 340 340 345 345 345 345 345 346 346 347 346 347 348 348 349 348 346 345 344 346 346 347 346 348 351 348 346 349 347 342 337 335 337 337 317
319 318 315 315 318 323 328 331 333 337 335 334 338 337 342 344 345 345 346 346 346 346 347 347 347 347 347 349 350 350 350 347 345 345 345 346 346 347 351 350 348 349 347 344 342 338 338 337 320
318 318 315 318 321 323 328 334 340 340 340 339 337 334 342 344 346 346 347 346 347 347 347 348 348 348 347 349 349 350 349 348 345 343 343 344 346 348 350 351 349 350 350 346 345 341 340 339 337
Wind_Speed
7 5 5 3 4 5 4 3 3 5 5 5 20 6 3 7 2 5 27 23 24 23 22 21 22 21 20 21 20 20 20 20 19 19 19 20 21 20 17 16 16 16 13 11 9 7 7 6 5
5 3 5 2 5 4 3 3 5 2 4 23 14 13 6 3 8 29 30 24 23 24 22 22 20 20 19 19 19 19 19 18 17 17 17 17 17 16 15 15 16 15 13 10 8 8 7 7 5
3 3 2 3 3 4 4 2 9 12 8 7 6 11 5 3 20 37 31 29 26 25 22 21 19 18 17 16 15 15 16 16 16 16 16 16 15 14 14 13 13 12 11 9 8 8 8 6 4
2 2 4 4 2 2 6 7 16 14 14 9 17 9 8 5 29 27 32 30 26 25 23 20 16 15 15 14 13 13 14 14 14 13 13 12 13 12 11 11 9 9 9 8 8 8 8 8 8
2 4 5 3 5 4 6 14 8 5 6 12 8 5 11 20 18 31 30 28 26 25 23 19 15 13 13 12 11 11 12 12 12 12 12 11 11 10 10 9 8 8 7 7 7 7 8 8 9
5 5 4 3 4 5 3 12 14 16 17 16 14 13 8 10 27 28 27 25 22 22 21 17 14 11 11 11 11 11 10 11 12 12 10 11 11 10 9 8 8 6 6 6 6 6 7 8 8
7 4 4 3 4 3 4 14 11 16 14 8 16 5 9 20 27 26 25 24 22 20 18 15 14 12 10 9 10 11 10 10 11 10 10 10 9 8 7 6 7 6 6 6 5 5 7 8 8
6 4 7 5 1 2 9 4 15 17 5 21 23 4 9 29 29 27 27 25 22 20 16 14 12 11 10 10 9 10 10 10 10 10 10 10 8 8 7 6 5 4 4 4 5 5 5 8 8
7 4 1 1 2 3 13 5 13 4 24 11 8 14 27 32 30 27 26 24 22 20 17 14 13 11 11 10 10 10 10 9 9 10 10 11 9 8 7 7 5 5 2 2 4 6 7 7 9
4 4 6 5 5 3 4 8 13 7 15 4 14 27 31 32 31 29 27 25 24 22 19 15 14 12 12 11 11 11 10 10 10 10 10 10 8 8 7 6 5 4 1 1 1 3 5 6 8
4 2 2 7 3 6 1 10 4 20 6 17 28 35 35 34 31 29 24 21 21 19 19 18 15 14 13 12 13 12 11 10 10 10 10 9 7 5 4 3 2 3 3 1 1 2 5 2 7
4 5 2 9 1 5 2 2 10 24 9 25 32 37 38 35 33 29 25 20 21 21 18 17 20 15 14 12 12 12 11 10 11 10 8 6 5 3 2 2 3 3 4 5 3 4 3 3 5
2 6 10 13 11 4 2 7 1 19 15 27 30 35 38 34 32 28 25 21 21 21 20 18 18 15 13 12 10 9 9 10 10 8 6 7 5 3 1 2 1 5 7 4 6 5 5 1 3
9 12 10 7 5 6 6 4 6 11 31 27 30 36 37 33 32 28 28 25 24 21 19 17 17 14 14 11 7 4 6 8 4 4 5 5 4 3 4 3 4 2 3 3 3 4 4 3 3
14 5 5 4 8 3 3 5 3 23 29 31 28 32 34 34 33 31 30 27 23 20 19 17 16 15 14 10 6 9 8 8 6 4 2 2 1 2 1 2 2 3 2 1 1 3 2 3 3
4 3 1 3 3 3 4 4 6 22 27 27 30 30 30 32 37 33 31 28 25 22 23 19 17 15 14 12 8 10 10 7 6 4 3 3 2 3 2 3 3 4 2 2 3 3 4 3 3
3 2 4 2 8 3 2 2 7 26 23 23 28 31 28 24 23 30 31 32 27 24 22 22 21 16 15 15 13 11 9 7 4 2 7 7 1 1 3 3 4 5 3 3 2 2 1 3 7
4 2 4 4 7 3 3 4 5 22 21 23 27 33 33 31 29 28 28 33 28 23 20 20 16 15 14 19 18 14 13 7 5 2 5 3 2 4 3 3 2 6 4 5 5 5 5 2 2
5 3 5 3 6 4 7 4 8 16 22 22 26 30 35 34 29 29 27 33 32 26 24 22 21 18 15 17 23 20 16 12 8 6 1 3 4 6 4 2 3 5 5 4 6 5 6 5 7
2 2 8 2 6 5 6 9 6 18 22 30 30 31 36 34 32 31 30 32 36 31 27 26 23 20 18 15 15 21 18 13 10 8 4 4 5 4 4 4 6 7 5 4 3 10 9 7 10
2 5 6 5 1 3 3 8 2 5 10 25 31 35 37 36 34 31 30 35 36 33 28 27 27 24 21 18 13 19 21 15 13 12 11 7 5 2 4 6 6 5 6 4 2 9 8 8 9
6 10 11 9 2 3 2 4 6 6 8 10 25 32 35 37 34 31 31 35 37 32 28 27 27 26 23 20 19 18 21 21 16 11 11 8 5 3 4 4 5 6 5 3 0 5 8 8 10
12 10 14 12 5 3 2 3 7 5 7 9 20 28 30 39 36 35 35 35 36 32 31 29 25 25 24 24 21 17 20 22 16 11 9 10 8 7 5 4 5 4 5 3 2 2 5 9 10
1 6 8 5 4 2 6 6 7 4 11 7 12 27 26 29 37 38 35 34 37 36 34 35 29 24 24 25 23 20 20 22 18 14 12 12 10 10 9 5 4 5 5 5 4 4 5 8 10
6 7 3 3 2 6 3 4 10 7 8 9 13 27 28 26 31 41 41 39 38 40 36 36 34 27 25 26 25 23 20 21 19 15 14 11 8 12 10 8 7 7 6 7 5 4 5 5 9
7 9 6 6 4 5 2 6 7 7 9 17 24 20 19 24 29 39 44 42 41 42 39 34 38 32 28 27 27 25 22 21 18 16 15 13 10 9 9 7 9 9 7 8 6 5 3 3 5
4 3 4 7 3 2 3 7 6 8 3 6 19 24 21 19 31 37 45 43 43 43 42 36 36 35 30 30 26 27 25 25 23 19 18 16 13 12 10 8 10 10 9 8 7 6 6 2 4
6 7 3 4 4 2 5 4 4 5 6 3 6 6 9 24 32 38 37 42 42 42 40 39 37 35 26 32 29 27 26 26 25 23 21 18 16 15 13 11 11 12 12 9 8 7 6 4 3
2 3 6 6 5 5 2 5 5 5 3 8 7 11 6 9 19 27 32 38 41 40 39 39 38 37 32 35 31 29 26 24 25 25 23 22 19 17 17 14 13 13 13 11 10 9 9 5 4
5 6 6 5 4 1 4 5 1 3 6 6 14 8 20 14 19 25 29 33 37 38 38 36 36 31 33 34 33 29 26 26 25 25 24 25 24 21 20 18 16 16 15 13 12 11 10 9 7
Wind_Direction
85 34 40 102 57 67 28 22 123 129 171 182 161 128 94 33 108 155 148 147 144 135 131 130 125 123 120 124 123 125 129 129 133 135 137 143 144 147 150 153 156 154 150 159 154 162 151 150 139
14 27 76 74 82 74 356 9 73 70 117 125 104 108 53 58 113 136 153 155 146 142 138 132 128 128 129 126 130 129 131 130 136 140 147 149 154 155 156 154 161 160 163 169 169 176 177 178 169
108 42 66 77 83 130 138 323 118 130 107 115 102 77 70 98 143 144 153 150 150 143 137 131 130 127 123 126 126 132 133 136 134 142 149 150 153 158 156 162 172 175 180 183 187 179 176 182 180
64 354 65 77 125 46 128 161 120 107 82 88 99 80 75 166 140 151 150 153 151 144 143 142 141 132 126 125 126 131 135 137 136 138 139 144 151 151 154 163 169 180 178 189 193 186 174 168 173
260 28 44 50 28 75 114 136 121 97 86 98 111 97 104 147 150 152 153 157 152 150 151 152 149 138 133 131 128 132 137 138 133 137 132 139 134 139 151 149 153 155 152 154 157 177 164 152 156
58 40 60 72 72 97 69 133 101 87 93 97 98 97 127 169 157 156 157 159 159 157 157 157 156 153 144 141 132 137 138 139 134 132 135 130 129 132 143 145 143 138 137 138 138 146 145 154 164
82 58 330 76 105 99 149 143 113 114 111 113 134 84 133 163 160 156 159 165 167 167 165 167 165 157 157 145 145 142 142 144 134 138 134 129 127 125 133 139 133 134 144 138 132 137 143 149 171
74 94 1 16 313 180 147 116 144 125 90 141 127 156 164 169 165 166 169 172 175 177 177 174 166 158 158 153 143 147 150 145 138 138 133 121 120 122 121 125 129 122 127 136 144 145 155 158 170
87 59 74 279 360 314 176 127 153 111 142 159 172 167 161 165 170 172 174 178 184 186 181 178 168 160 155 152 149 151 153 143 136 128 125 115 113 122 120 112 102 93 81 110 171 167 161 178 184
64 127 222 223 171 155 106 147 145 123 157 117 109 155 157 166 176 176 177 182 187 186 181 178 171 156 151 154 149 150 151 140 137 121 121 117 119 119 118 114 106 77 34 94 110 194 198 192 195
118 175 206 271 193 56 351 103 155 143 200 167 148 159 163 170 178 180 178 178 181 179 180 176 157 147 145 139 144 143 147 138 138 127 129 122 118 125 122 102 91 57 23 359 181 234 289 105 205
76 301 186 297 118 17 281 29 127 163 195 179 167 169 168 176 180 183 180 176 173 178 175 171 161 147 143 135 131 131 130 125 125 125 127 141 149 141 106 79 52 62 39 77 45 21 317 309 212
194 175 265 284 235 275 80 96 110 196 168 164 168 174 176 182 189 190 185 176 167 163 164 158 161 158 149 145 137 128 129 127 129 128 130 111 119 87 127 36 130 75 90 96 65 34 49 130 205
202 148 210 216 194 277 309 6 116 144 157 154 166 174 184 190 194 196 195 189 183 171 172 168 163 158 158 158 151 157 161 147 137 131 134 127 82 45 34 114 106 101 83 117 91 54 43 68 157
133 130 212 208 185 234 333 29 43 151 163 164 168 180 185 196 196 202 197 193 185 186 184 185 178 172 168 170 162 170 158 165 180 194 215 199 14 341 16 97 160 172 181 160 359 62 353 324 292
73 54 46 247 261 342 72 272 123 163 163 175 181 189 185 199 208 213 206 202 194 191 197 193 188 188 183 183 176 175 186 188 199 223 241 235 209 308 246 210 202 154 131 61 42 111 19 35 20
28 206 222 303 202 146 131 161 156 176 178 182 187 189 199 206 202 212 208 207 201 198 197 197 195 195 198 195 194 196 199 211 215 298 222 254 173 149 198 187 204 209 177 162 206 162 267 323 347
209 221 250 217 198 237 193 207 173 182 185 195 199 196 199 209 215 212 211 211 207 207 209 207 200 201 209 208 205 213 218 231 225 220 321 234 213 214 222 225 274 168 229 201 252 252 272 225 4
139 212 274 163 195 130 217 258 226 184 189 202 208 209 207 212 214 222 222 214 204 208 211 210 204 202 201 211 214 218 221 239 230 233 260 239 254 223 242 255 225 201 230 245 290 207 169 158 122
221 274 280 260 176 159 193 252 214 192 198 198 206 213 213 216 221 223 223 217 209 212 211 213 213 212 215 218 221 215 216 236 247 242 247 250 283 229 248 272 256 252 257 292 325 181 174 164 152
217 195 273 209 129 335 61 328 151 217 203 200 211 217 217 219 222 226 220 212 208 210 214 216 217 220 221 215 209 212 216 230 224 234 243 236 225 238 249 262 262 241 257 301 306 191 197 184 187
247 187 228 239 168 212 96 275 286 237 196 192 203 211 218 220 222 227 218 208 210 215 218 221 221 223 223 215 216 216 215 221 219 235 239 223 234 239 236 281 267 245 253 261 260 197 205 209 207
235 162 205 233 86 25 17 64 270 360 259 207 223 215 218 221 217 219 217 214 213 214 219 224 220 227 226 218 218 221 222 221 231 234 234 239 236 244 245 229 282 269 243 254 235 237 228 229 219
81 62 36 61 100 359 196 156 282 198 220 233 215 231 222 218 219 219 221 217 217 216 221 223 220 225 227 225 221 220 223 223 238 244 258 260 246 231 244 241 262 272 257 255 259 273 254 234 230
81 76 18 8 360 225 86 121 244 261 238 213 213 227 225 220 219 218 214 216 218 218 221 226 223 223 227 226 225 221 223 230 238 244 254 270 241 225 243 245 245 248 255 242 248 254 260 255 234
182 157 150 184 180 246 136 234 257 281 232 242 246 244 224 206 216 221 218 220 226 221 225 228 226 226 227 227 227 225 225 227 233 234 240 246 264 235 239 244 238 239 241 233 240 247 239 314 260
200 188 180 104 11 76 246 297 324 345 10 331 246 239 224 231 216 220 219 222 226 226 226 229 227 229 233 230 230 229 230 231 234 234 236 241 245 233 241 251 234 227 238 234 239 230 231 232 225
161 160 73 20 129 232 285 279 237 313 342 16 34 356 261 232 214 209 214 221 229 234 232 228 230 234 244 230 233 233 232 236 239 239 238 238 240 238 245 250 228 223 232 234 243 239 244 257 237
118 128 46 111 121 163 215 263 201 267 305 322 24 77 101 174 194 202 218 225 229 233 235 234 230 234 243 234 235 236 235 237 241 243 243 242 241 241 244 246 240 233 230 234 240 239 245 248 240
132 154 131 122 229 168 154 272 118 242 154 49 293 149 104 125 173 199 219 227 226 234 238 239 228 235 239 231 241 233 239 238 240 243 244 245 244 242 245 247 241 240 241 237 240 244 248 243 252